Regional Weather Roundup
Issued by NWS

Home | Current Version | Previous Version | Text Only | Print | Product List | Glossary On
Versions: 1 2 3 4 5 6 7 8 9 10 11 12 13 14 15 16 17 18 19 20 21 22 23 24 25 26 27 28 29 30 31 32 33 34 35 36 37 38 39 40 41 42 43 44 45 46 47 48 49 50
000
ASUS45 KABQ 061910
RWRNM
NEW MEXICO REGIONAL WEATHER ROUNDUP
NATIONAL WEATHER SERVICE ALBUQUERQUE NM
100 PM MDT FRI MAY 06 2016

NOTE: "FAIR" MEANS FEW OR NO CLOUDS BELOW 12,000 FEET AGL WITH NO
       SIGNIFICANT WEATHER OR OBSTRUCTIONS TO VISION.

      THIS PRODUCT IS RELEASED AS TWO VERSIONS.  ONE VERSION NEAR
      THE TOP OF THE HOUR CONTAINING PRELIMINARY DATA FROM ALBUQUERQUE
      AND OTHER STATIONS.  A FINAL VERSION WITH ADDITIONAL DATA IS
      ISSUED ABOUT 10 MINUTES AFTER THE HOUR.

NMZ501-503-504-510>518-062000-
NORTHWEST PLATEAU/NORTHCENTRAL MOUNTAINS

CITY           SKY/WX    TMP DP  RH WIND       PRES   REMARKS
FARMINGTON     FAIR      77  18  11 S20G26    29.85F
LOS ALAMOS     FAIR      71  20  14 S23G35    30.06F
SANTA FE       FAIR      79  19  10 S28G46    30.01F
TAOS           FAIR      72  30  21 SW15G22   30.05F
ANGEL FIRE     FAIR      65  29  25 SE21G30   30.17F

$$
NMZ402-403-502-505>509-062000-
WESTCENTRAL MOUNTAINS/SOUTHWEST MOUNTAINS

CITY           SKY/WX    TMP DP  RH WIND       PRES   REMARKS
GALLUP         FAIR      68  15  13 S21G35    29.93F
GRANTS         FAIR      74  16  11 S17G38    29.95F
SILVER CITY      N/A     75  23  14 SW21G30   30.01F

$$
NMZ407-409-411-412-062000-
SOUTHERN DESERTS

CITY           SKY/WX    TMP DP  RH WIND       PRES   REMARKS
LORDSBURG      FAIR      81  18   9 S23G45    29.92F
DEMING         FAIR      83  22  10 SW13G29   29.94F
LAS CRUCES     FAIR      86  15   7 S17G30    29.96F
HOLLOMAN AFB   FAIR      88  17   7 S22G28    29.90F
ALAMOGORDO     FAIR      88  19   8 S23G33    29.93F
T OR C         FAIR      82  14   8 S25G39    29.94F

$$
NMZ519>523-062000-
CENTRAL VALLEYS/CENTRAL HIGHLANDS

CITY           SKY/WX    TMP DP  RH WIND       PRES   REMARKS
ALBUQUERQUE    FAIR      81  14   8 S31G44    29.95F
DOUBLE EAGLE   MOSUNNY   79  18  10 SE28G39   29.99F
MORIARTY ARPT  FAIR      78  15   9 S20G31    30.05F
CLINES CORNERS FAIR      74  26  16 S16G24    30.08F
BELEN          FAIR      80  13   8 S29G36    29.95F
SOCORRO        FAIR      82  16   8 S22G31    29.93F

$$
NMZ524>526-539-540-062000-
SOUTHCENTRAL MOUNTAINS

CITY           SKY/WX    TMP DP  RH WIND       PRES   REMARKS
RUIDOSO        FAIR      77  16  10 SW21G26   30.10S

$$
NMZ527>531-062000-
NORTHEAST HIGHLANDS/NORTHEAST PLAINS

CITY           SKY/WX    TMP DP  RH WIND       PRES   REMARKS
LAS VEGAS      FAIR      70  32  24 S21G29    30.11F
RATON          FAIR      74  29  19 S25G31    30.07F
CLAYTON        FAIR      78  35  21 S24G35    30.05F

$$
NMZ532>537-062000-
EASTCENTRAL PLAINS

CITY           SKY/WX    TMP DP  RH WIND       PRES   REMARKS
TUCUMCARI      FAIR      87  32  14 S25G33    29.97F
CANNON AFB     FAIR      84  31  14 S31G38    30.00F
CLOVIS AIRPORT FAIR      82  36  18 SE31G37   30.03F

$$
NMZ028-029-538-062000-
SOUTHEAST PLAINS

CITY           SKY/WX    TMP DP  RH WIND       PRES   REMARKS
ROSWELL        FAIR      88  34  14 SE22G30   29.93F
ARTESIA        FAIR      88  39  18 SE23      29.92F
CARLSBAD       NOT AVBL
HOBBS          SUNNY     86  34  15 SE25G36   30.00F


$$




USA.gov is the U.S. government's official web portal to all federal, state and local government web resources and services.